Location: Izdebno
(52.6670°N, 16.2170°E)
Time: 04:48:20
(UTC+02:00)

A-11 Canister half - Pass Details

Date: 08 February 2023
Orbit: 1526 x 1682 km, 47.3° (Epoch: 25 March)

Event Time Altitude Azimuth Distance (km) Brightness Sun altitude
Rises 02:04:45 0° 169° (S) 4,683 - -46.1°
Reaches altitude 10° 02:11:21 10° 136° (SE) 3,691 - -45.4°
Exits shadow 02:12:43 11° 127° (SE) 3,635 11.0 -45.2°
Maximum altitude 02:13:14 11° 123° (ESE) 3,631 11.0 -45.2°
Drops below altitude 10° 02:15:07 10° 111° (ESE) 3,692 11.2 -45.0°
Sets 02:21:41 0° 78° (ENE) 4,688 12.1 -44.3°
